Starlink 32441

operational
NORAD ID: 61668 Int'l Des: 2024-193 Owner: SPXS Country: US Constellation: starlink
LEOCIRCULAR

Starlink 32441について

説明を読み込み中...

リアルタイム位置

3D地球を読み込み中...

次回通過

高度履歴

Altitude vs Time

uPlot chart will show altitude changes over time

軌道要素

1 61668U 24193H 25306.44710830 .00003641 00000-0 13497-3 0 9990
2 61668 53.1600 322.1479 0001418 92.9849 267.1314 15.30204147 57044
Epoch: Nov 2, 2025 • Age: 13 hours

現在のステータス

高度 476.0 km
速度 7.63 km/s
衛星直下点 28.21°N, 75.08°E
打ち上げ日 Oct 26, 2024
運用期間 1 years
タイプ internet

技術仕様

分類 Payload
質量 730.00 kg
乾燥質量 700.00 kg
総質量 730.00 kg
長さ 0.30 m
直径 4.10 m
スパン 29.00 m
形状 Box + pan
製造者 SPXS
バスタイプ Starlink V2M
フェーズステータス In Orbit
所有者/国 SPXS/US

大規模コンステレーション

Loading constellations...